Simultaneous Nadir Overpasses (SNOs) Predictions

Prediction of SNOs between GOES-15 and METOP-B Satellite Orbit:

Table of predicted SNOs for the next 14.0 days since TLE Epoch: 8/22/2025
Index Date Time (GOES-15) GOES-15 Lat,Lon METOP-B Lat,Lon Distance(km) Time Diff (sec)
1 08/22/2025 04:47:42 0.16, 61.66 -0.18, 63.28 185.18 80
2 08/23/2025 17:09:23 -0.22, 61.79 -0.91, 58.67 355.47 80
3 08/24/2025 16:46:05 -0.18, 61.81 0.24, 63.64 209.06 80
4 08/26/2025 05:07:38 0.24, 61.72 0.83, 59.06 303.47 80
5 08/27/2025 04:44:20 0.20, 61.74 -0.33, 64.03 260.78 80
6 08/28/2025 17:06:00 -0.26, 61.89 -0.82, 59.43 280.50 80
7 08/29/2025 16:42:43 -0.22, 61.91 0.34, 64.39 283.58 80
8 08/31/2025 05:04:15 0.28, 61.83 0.72, 59.81 229.77 80
9 09/01/2025 04:40:57 0.24, 61.86 -0.38, 64.79 333.81 80
10 09/02/2025 17:02:38 -0.30, 62.01 -0.70, 60.18 208.72 80
11 09/03/2025 16:39:20 -0.26, 62.04 0.41, 65.16 354.64 80
